Regional Weather Roundup
Issued by NWS

Home | Current Version | Previous Version | Graphics & Text | Print | Product List | Glossary On
Versions: 1 2 3 4 5 6 7 8 9 10 11 12 13 14 15 16 17 18 19 20 21 22 23 24 25 26 27 28 29 30 31 32 33 34 35 36 37 38 39 40 41 42 43 44 45 46 47 48 49 50
000
ASUS43 KLSX 080410
RWRMO

WEATHER SUMMARY FOR MISSOURI
NATIONAL WEATHER SERVICE SPRINGFIELD MO
1000 PM CST SUN FEB 07 2016

NOTE: "FAIR" INDICATES FEW OR NO CLOUDS BELOW 12,000 FEET WITH NO
       SIGNIFICANT WEATHER AND/OR OBSTRUCTIONS TO VISIBILITY.
       CURRENT SKY AND/OR WEATHER CONDITIONS ARE NOT AVAILABLE FOR
       CHILLICOTHE AND FARMINGTON.

MOZ001>031-035>038-043-044-053-054-080500-
...NORTHERN AND WESTERN MISSOURI...

CITY           SKY/WX    TMP DP  RH WIND       PRES   REMARKS
KANSAS CTY INT CLOUDY    36  29  75 NW15G23   30.01S WCI  27
KANSAS C DTWN  CLOUDY    39  28  64 NW13G20   30.01S
LEE`S SUMMIT   FLURRIES  37  27  67 NW17G28   30.01F WCI  27
ST JOSEPH      CLOUDY    36  27  69 NW24      30.01S WCI  24
CHILLICOTHE      N/A     38  29  70 W12G21    29.94F
KIRKSVILLE     CLOUDY    34  29  82 W12       29.86F WCI  25

$$
MOZ066>068-077>081-088>096-101>105-080500-
...SOUTHWEST MISSOURI...

CITY           SKY/WX    TMP DP  RH WIND       PRES   REMARKS
SPRINGFIELD    CLOUDY    42  15  33 NW15G23   30.01S
JOPLIN         MOCLDY    41  19  41 NW15      30.09R

$$
MOZ032>034-039>042-045>050-055>058-069>072-080500-
...CENTRAL MISSOURI...

CITY           SKY/WX    TMP DP  RH WIND       PRES   REMARKS
COLUMBIA       MOCLDY    41  24  51 W23G32    29.90F
JEFFERSON CITY MOCLDY    43  24  47 W29G36    29.93S
ROLLA          MOCLDY    41  19  41 W13       29.89F
SEDALIA        CLOUDY    39  26  59 W17G24    29.97S WCI  30
WHITEMAN AFB   LGT RAIN  37  28  70 NW23G33   29.97S WCI  26
WARRENSBURG    CLOUDY    37  28  70 W15G28    30.00S WCI  28
OSAGE BEACH    CLOUDY    45  19  36 W12G21    29.94F

$$
MOZ051-052-059>065-080500-
...EAST CENTRAL MISSOURI...

CITY           SKY/WX    TMP DP  RH WIND       PRES   REMARKS
ST LOUIS INTL  MOCLDY    40  31  70 SW7       29.87F
SPIRIT OF STL  CLOUDY    38  30  73 SW6       29.87F
ST CHARLES     MOCLDY    35  29  78 W12       29.89R WCI  27

$$
MOZ072>076-082>087-097>100-106>115-080500-
...SOUTH CENTRAL AND SOUTHEAST MISSOURI...

CITY           SKY/WX    TMP DP  RH WIND       PRES   REMARKS
CAPE GIRARDEAU CLOUDY    45  32  60 NW6       29.91F
FARMINGTON     CLOUDY    41  27  57 W5        29.90F
POPLAR BLUFF   PTCLDY    48  26  42 W6        29.93S
WEST PLAINS    CLEAR     42  22  44 W9        29.97F

$$



USA.gov is the U.S. government's official web portal to all federal, state and local government web resources and services.